[[{"header":{"parameterUnit":"m.s-1","parameterCategory":1,"la1":30.2992,"la2":30.254,"lo1":-89.0895,"lo2":-89.0443,"dy":0.0025,"dx":0.0025,"nx":19,"ny":19,"refTime":"2026-03-12T21:00:00:Z","depth":0,"parameterNumber":2,"parameterNumberName":"U-component_of_WINDS"},"data":[0,0,0,-0.1477,-0.1476,-0.1449,-0.1448,-0.1418,-0.1417,0,0,0,0,0,0,0,0,0,0,0,-0.1489,-0.1489,-0.1477,-0.1476,-0.1449,-0.1448,-0.1418,-0.1417,0,0,0,0,0,0,0,0,0,0,0,-0.1489,-0.1489,-0.1489,-0.1476,-0.1449,-0.1448,-0.1418,-0.1437,0,0,0,0,0,0,0,0,0,0,-0.1463,-0.1478,-0.1489,-0.1489,-0.1476,-0.1449,-0.1448,-0.1438,-0.1436,-0.1432,0,-0.1432,0,-0.1424,-0.1416,-0.1416,0,0,0,-0.1473,-0.148,-0.1469,-0.1489,-0.1476,-0.1449,-0.146,-0.1436,-0.1434,-0.143,-0.1431,-0.143,-0.1424,-0.1416,-0.1415,-0.1408,-0.1409,0,0,-0.1475,-0.1486,-0.147,-0.1468,-0.1473,-0.1461,-0.1459,-0.1435,-0.1437,-0.1431,-0.1429,-0.1423,-0.1415,-0.1415,-0.1408,-0.1408,0,0,0,-0.1481,-0.1487,-0.1477,-0.1469,-0.1464,-0.146,-0.1458,-0.1438,-0.1434,-0.1429,-0.1423,-0.1415,-0.1415,-0.1408,-0.1408,-0.1425,0,0,0,-0.1482,-0.1491,-0.1477,-0.1484,-0.1464,-0.1451,-0.1462,-0.1435,-0.1432,-0.1423,-0.1415,-0.1415,-0.1408,-0.1408,-0.1424,-0.1431,0,0,0,-0.1489,-0.1492,-0.1489,-0.1485,-0.1473,-0.1451,-0.1445,-0.1434,-0.1429,-0.1416,-0.1415,-0.1408,-0.1408,-0.1423,-0.143,-0.1432,0,0,0,-0.15,-0.1505,-0.149,-0.1491,-0.1474,-0.1461,-0.1445,-0.1435,-0.1426,-0.1415,-0.1408,-0.1408,-0.1423,-0.1429,-0.1431,-0.1436,-0.1439,0,0,-0.1512,-0.1506,-0.1506,-0.1492,-0.1486,-0.1465,-0.146,-0.1441,-0.1429,-0.1416,-0.1415,-0.1424,-0.143,-0.1432,-0.1451,-0.1454,0,0,0,-0.1514,-0.1514,-0.151,-0.1502,-0.1487,-0.1474,-0.1455,-0.1447,-0.1435,-0.1425,-0.1425,-0.1428,-0.1429,-0.143,-0.1433,-0.1432,-0.141,-0.141,-0.141,-0.1547,-0.1531,-0.153,-0.151,-0.1502,-0.1481,-0.1472,-0.1458,-0.1446,-0.1446,-0.1442,-0.1456,-0.1458,-0.146,-0.1459,-0.1443,-0.1443,-0.1443,-0.1443,-0.1562,-0.156,-0.1541,-0.1533,-0.1516,-0.1508,-0.1487,-0.1478,-0.1468,-0.1458,-0.1458,-0.1449,-0.1463,-0.1462,-0.1444,-0.1444,-0.1444,-0.1444,-0.1443,-0.1582,-0.1578,-0.1569,-0.1554,-0.1544,-0.1523,-0.1514,-0.1498,-0.1484,-0.1483,-0.1477,-0.1477,-0.1474,-0.1481,-0.1481,-0.1481,-0.1481,-0.1482,-0.1482,-0.1608,-0.1596,-0.1591,-0.1574,-0.1566,-0.1552,-0.1529,-0.152,-0.1506,-0.1495,-0.1495,-0.1481,-0.1467,-0.1464,-0.1482,-0.1482,-0.1482,-0.1482,-0.1482,-0.163,-0.1622,-0.1614,-0.1605,-0.1583,-0.1573,-0.1553,-0.1535,-0.1525,-0.1521,-0.1506,-0.1498,-0.1492,-0.149,-0.1487,-0.151,-0.151,-0.151,-0.151,-0.1647,-0.1642,-0.1629,-0.1616,-0.1602,-0.1582,-0.1571,-0.1552,-0.1531,-0.1524,-0.1518,-0.1512,-0.1511,-0.1505,-0.1503,-0.15,-0.1526,-0.1526,-0.1526,-0.166,-0.1652,-0.1647,-0.1627,-0.1608,-0.1591,-0.158,-0.1565,-0.1539,-0.1526,-0.1517,-0.1516,-0.1508,-0.1506,-0.1495,-0.1492,-0.1486,0,0]},{"header":{"parameterUnit":"m.s-1","parameterCategory":1,"la1":30.2992,"la2":30.254,"lo1":-89.0895,"lo2":-89.0443,"dy":0.0025,"dx":0.0025,"nx":19,"ny":19,"refTime":"2026-03-12T21:00:00:Z","depth":0,"parameterNumber":3,"parameterNumberName":"V-component_of_WINDS"},"data":[0,0,0,-8.4934,-8.4938,-8.5124,-8.5124,-8.5363,-8.5366,0,0,0,0,0,0,0,0,0,0,0,-8.4883,-8.4885,-8.4934,-8.4939,-8.5124,-8.5124,-8.5363,-8.5366,0,0,0,0,0,0,0,0,0,0,0,-8.4882,-8.4884,-8.4887,-8.4939,-8.5123,-8.5124,-8.5363,-8.5221,0,0,0,0,0,0,0,0,0,0,-8.5041,-8.4998,-8.4884,-8.4887,-8.494,-8.5123,-8.5124,-8.5214,-8.523,-8.5281,0,-8.5331,0,-8.5352,-8.5382,-8.5383,0,0,0,-8.4935,-8.4985,-8.5032,-8.4887,-8.4942,-8.5123,-8.5039,-8.5223,-8.5241,-8.5302,-8.5334,-8.5343,-8.5356,-8.5384,-8.5385,-8.5704,-8.5705,0,0,-8.4924,-8.4918,-8.502,-8.5044,-8.5019,-8.5033,-8.5045,-8.5234,-8.5267,-8.5335,-8.5348,-8.536,-8.5385,-8.5387,-8.5702,-8.5704,0,0,0,-8.4898,-8.4911,-8.4953,-8.5034,-8.5068,-8.5038,-8.5052,-8.5258,-8.5273,-8.5351,-8.5363,-8.5387,-8.539,-8.57,-8.5703,-8.5782,0,0,0,-8.4891,-8.4895,-8.4949,-8.4946,-8.5064,-8.5166,-8.5072,-8.526,-8.5281,-8.5362,-8.5387,-8.5392,-8.5698,-8.5701,-8.5776,-8.5819,0,0,0,-8.487,-8.4892,-8.4921,-8.4945,-8.5025,-8.5163,-8.5188,-8.5264,-8.5289,-8.5383,-8.5393,-8.5697,-8.5701,-8.577,-8.581,-8.5904,0,0,0,-8.4843,-8.4985,-8.4922,-8.5085,-8.5024,-8.5211,-8.5187,-8.5326,-8.5416,-8.5388,-8.5699,-8.5702,-8.5768,-8.5805,-8.5898,-8.5981,-8.6015,0,0,-8.5018,-8.5006,-8.5103,-8.5052,-8.525,-8.5183,-8.5392,-8.5478,-8.5491,-8.5631,-8.5639,-8.5778,-8.581,-8.5902,-8.6208,-8.6235,0,0,0,-8.5156,-8.5225,-8.5279,-8.5367,-8.544,-8.5505,-8.5562,-8.5594,-8.5715,-8.5563,-8.5836,-8.5855,-8.591,-8.595,-8.5973,-8.6021,-8.5721,-8.572,-8.572,-8.5392,-8.5406,-8.5567,-8.5603,-8.5689,-8.5748,-8.5818,-8.5871,-8.5855,-8.592,-8.5962,-8.6146,-8.6193,-8.621,-8.626,-8.6006,-8.6007,-8.6007,-8.6007,-8.565,-8.5752,-8.5733,-8.5883,-8.5896,-8.602,-8.6083,-8.6069,-8.6186,-8.6115,-8.6163,-8.6085,-8.624,-8.6284,-8.6013,-8.6012,-8.6011,-8.6011,-8.601,-8.5807,-8.5858,-8.5899,-8.603,-8.6129,-8.616,-8.6276,-8.6281,-8.6287,-8.6335,-8.6381,-8.638,-8.638,-8.6357,-8.6357,-8.6358,-8.6359,-8.6359,-8.6359,-8.5954,-8.5997,-8.6096,-8.6189,-8.6248,-8.6326,-8.6389,-8.6446,-8.6511,-8.6506,-8.6507,-8.6486,-8.6253,-8.6195,-8.6369,-8.6368,-8.6366,-8.6365,-8.6365,-8.6212,-8.6156,-8.6308,-8.6368,-8.6479,-8.6578,-8.6586,-8.6703,-8.6751,-8.6808,-8.6778,-8.6605,-8.6591,-8.6573,-8.6525,-8.6774,-8.6774,-8.6774,-8.6774,-8.6345,-8.634,-8.6499,-8.6595,-8.669,-8.6713,-8.6884,-8.6935,-8.6978,-8.7009,-8.6974,-8.691,-8.6891,-8.6889,-8.6864,-8.6819,-8.7138,-8.7138,-8.7138,-8.6505,-8.6511,-8.6656,-8.6702,-8.679,-8.6864,-8.7026,-8.7135,-8.7171,-8.7153,-8.7033,-8.7018,-8.6916,-8.6882,-8.686,-8.6821,-8.6739,0,0]}]]